User: anonymous   Login
Location: Ferma
(41.9500°N, 44.5167°E)
Time: 13:14:13
(UTC+00:00)
Language:

Cosmos 1269 Rocket - Orbit

View from above orbital plane
View from above orbital plane
View from above satellite
View from above satellite

Ground track
Ground track

The orbit data is extracted from the following two-line orbital elements,

1 12443U 81041B   22272.90465450  .00000155  00000-0  63672-4 0  9995
2 12443  74.0535 233.9142 0005361 227.5211 132.5489 14.34859020164637
Epoch (UTC): 29 September 2022 21:42:42
Eccentricity: 0.0005361
inclination: 74.0535°
perigee height: 772 km
apogee height: 779 km
right ascension of ascending node: 233.9142°
argument of perigee: 227.5211°
revolutions per day: 14.34859020
mean anomaly at epoch: 132.5489°
orbit number at epoch: 16463

The dashed part of the orbit path shows where the satellite is in the earth's shadow,  

DLR